PRBRD SDCO-SBRF

Flight info

Callsign PRBRD
Flight time N/A
Altitude FL450
Route UTGER UZ23 ANBEX ANBE2A
Aircraft C750/M-VGDW/C

Departure

Time N/A
Airport Sorocaba Airport (SDCO)

Arrival

Time 2026-05-04 01:25
Airport Recife/Guararapes - Gilberto Freyre International Airport (SBRF)
Time Latitude Longitude Altitude Speed Heading
2026-05-04 00:07 -13.51916 -38.99003 45055 ft 523 kts 34°
2026-05-04 00:08 -13.46016 -38.94638 45052 ft 523 kts 34°
2026-05-04 00:08 -13.40124 -38.90284 45048 ft 523 kts 34°
2026-05-04 00:09 -13.34237 -38.85936 45043 ft 523 kts 34°
2026-05-04 00:09 -13.28348 -38.81588 45040 ft 522 kts 34°
2026-05-04 00:10 -13.22453 -38.77238 45035 ft 522 kts 34°
2026-05-04 00:10 -13.16568 -38.72897 45032 ft 522 kts 34°
2026-05-04 00:11 -13.10677 -38.68554 45031 ft 522 kts 34°
2026-05-04 00:11 -13.04798 -38.64221 45026 ft 522 kts 34°
2026-05-04 00:12 -12.98915 -38.59889 45025 ft 521 kts 34°
2026-05-04 00:12 -12.93031 -38.55558 45025 ft 521 kts 34°
2026-05-04 00:13 -12.87156 -38.51235 45024 ft 521 kts 34°
2026-05-04 00:13 -12.81271 -38.46909 45024 ft 521 kts 34°
2026-05-04 00:14 -12.75390 -38.42587 45024 ft 521 kts 34°
2026-05-04 00:14 -12.69507 -38.38266 45023 ft 521 kts 34°
2026-05-04 00:15 -12.63626 -38.33950 45024 ft 521 kts 34°
2026-05-04 00:15 -12.57753 -38.29641 45026 ft 521 kts 34°
2026-05-04 00:16 -12.51866 -38.25325 45026 ft 521 kts 34°
2026-05-04 00:16 -12.45979 -38.21010 45028 ft 521 kts 34°
2026-05-04 00:17 -12.40102 -38.16705 45029 ft 521 kts 34°
2026-05-04 00:17 -12.34222 -38.12399 45030 ft 521 kts 34°
2026-05-04 00:18 -12.28334 -38.08091 45032 ft 521 kts 34°
2026-05-04 00:18 -12.22441 -38.03787 45036 ft 521 kts 34°
2026-05-04 00:19 -12.16552 -37.99491 45038 ft 521 kts 34°
2026-05-04 00:19 -12.10665 -37.95198 45041 ft 521 kts 34°
2026-05-04 00:20 -12.04780 -37.90909 45044 ft 521 kts 34°
2026-05-04 00:20 -11.98902 -37.86626 45046 ft 520 kts 34°
2026-05-04 00:21 -11.93026 -37.82344 45051 ft 520 kts 34°
2026-05-04 00:21 -11.87153 -37.78071 45055 ft 520 kts 33°
2026-05-04 00:22 -11.81275 -37.73807 45057 ft 519 kts 33°
2026-05-04 00:22 -11.75400 -37.69553 45062 ft 519 kts 33°
2026-05-04 00:23 -11.69524 -37.65300 45063 ft 519 kts 33°
2026-05-04 00:23 -11.63643 -37.61046 45067 ft 518 kts 33°
2026-05-04 00:24 -11.57778 -37.56805 45071 ft 518 kts 33°
2026-05-04 00:24 -11.51908 -37.52562 45071 ft 518 kts 33°
2026-05-04 00:25 -11.46053 -37.48332 45078 ft 517 kts 33°
2026-05-04 00:25 -11.40188 -37.44096 45080 ft 517 kts 33°
2026-05-04 00:26 -11.34335 -37.39870 45080 ft 517 kts 33°
2026-05-04 00:26 -11.28486 -37.35649 45081 ft 517 kts 33°
2026-05-04 00:27 -11.22630 -37.31425 45081 ft 516 kts 33°
2026-05-04 00:27 -11.16783 -37.27210 45081 ft 516 kts 33°
2026-05-04 00:28 -11.10938 -37.22997 45081 ft 516 kts 33°
2026-05-04 00:28 -11.05079 -37.18775 45081 ft 516 kts 33°
2026-05-04 00:29 -10.99233 -37.14569 45081 ft 516 kts 33°
2026-05-04 00:29 -10.93375 -37.10368 45081 ft 516 kts 33°
2026-05-04 00:30 -10.87505 -37.06165 45081 ft 516 kts 33°
2026-05-04 00:30 -10.81646 -37.01972 45081 ft 516 kts 33°
2026-05-04 00:31 -10.75786 -36.97780 45081 ft 516 kts 33°
2026-05-04 00:31 -10.69919 -36.93584 45081 ft 516 kts 33°
2026-05-04 00:32 -10.64061 -36.89397 45081 ft 516 kts 33°
2026-05-04 00:32 -10.58198 -36.85206 45081 ft 516 kts 33°
2026-05-04 00:33 -10.49400 -36.78921 45081 ft 516 kts 33°
2026-05-04 00:34 -10.43541 -36.74738 45081 ft 516 kts 33°
2026-05-04 00:34 -10.37681 -36.70555 45081 ft 516 kts 33°
2026-05-04 00:35 -10.31808 -36.66365 45081 ft 516 kts 33°
2026-05-04 00:35 -10.25948 -36.62185 45081 ft 516 kts 33°
2026-05-04 00:36 -10.20086 -36.58005 45081 ft 516 kts 33°
2026-05-04 00:36 -10.14215 -36.53826 45081 ft 516 kts 33°
2026-05-04 00:37 -10.08346 -36.49662 45081 ft 516 kts 33°
2026-05-04 00:37 -10.02465 -36.45496 45081 ft 516 kts 33°
2026-05-04 00:38 -9.96596 -36.41342 45081 ft 516 kts 33°
2026-05-04 00:38 -9.90715 -36.37182 45081 ft 516 kts 33°
2026-05-04 00:39 -9.84839 -36.33025 45081 ft 516 kts 33°
2026-05-04 00:39 -9.78959 -36.28867 45081 ft 516 kts 33°
2026-05-04 00:40 -9.73076 -36.24708 45081 ft 516 kts 33°
2026-05-04 00:40 -9.67197 -36.20554 45081 ft 516 kts 33°
2026-05-04 00:41 -9.61317 -36.16400 45059 ft 519 kts 32°
2026-05-04 00:41 -9.55377 -36.12206 45052 ft 522 kts 32°
2026-05-04 00:42 -9.49436 -36.08014 45051 ft 523 kts 32°
2026-05-04 00:42 -9.43471 -36.03805 45051 ft 524 kts 32°
2026-05-04 00:43 -9.37492 -35.99588 45051 ft 525 kts 32°
2026-05-04 00:43 -9.31522 -35.95378 45051 ft 525 kts 32°
2026-05-04 00:44 -9.25525 -35.91150 45049 ft 525 kts 32°
2026-05-04 00:44 -9.19543 -35.86935 45049 ft 525 kts 32°
2026-05-04 00:45 -9.13550 -35.82713 45050 ft 526 kts 32°
2026-05-04 00:45 -9.07559 -35.78494 45048 ft 526 kts 32°
2026-05-04 00:46 -9.01674 -35.74124 45051 ft 527 kts 37°
2026-05-04 00:46 -8.96116 -35.69303 45050 ft 527 kts 40°
2026-05-04 00:47 -8.90777 -35.64286 45043 ft 521 kts 41°
2026-05-04 00:47 -8.85587 -35.59247 45039 ft 515 kts 42°
2026-05-04 00:48 -8.80477 -35.54249 45037 ft 509 kts 42°
2026-05-04 00:48 -8.75463 -35.49361 45033 ft 495 kts 42°
2026-05-04 00:49 -8.70546 -35.44615 45029 ft 487 kts 41°
2026-05-04 00:49 -8.65632 -35.39931 45025 ft 487 kts 41°
2026-05-04 00:50 -8.60702 -35.35259 44971 ft 488 kts 41°
2026-05-04 00:50 -8.58218 -35.32910 44590 ft 493 kts 41°
2026-05-04 00:50 -8.55881 -35.30701 44143 ft 495 kts 41°
2026-05-04 00:50 -8.54245 -35.29154 43740 ft 496 kts 41°
2026-05-04 00:51 -8.51719 -35.26765 42834 ft 500 kts 41°
2026-05-04 00:51 -8.49203 -35.24384 41862 ft 503 kts 41°
2026-05-04 00:51 -8.46620 -35.21939 40855 ft 503 kts 41°
2026-05-04 00:51 -8.44096 -35.19547 39863 ft 498 kts 42°
2026-05-04 00:52 -8.41578 -35.17162 38863 ft 493 kts 42°
2026-05-04 00:52 -8.39093 -35.14812 37869 ft 490 kts 43°
2026-05-04 00:52 -8.36631 -35.12483 36878 ft 483 kts 43°
2026-05-04 00:52 -8.34202 -35.10187 35879 ft 474 kts 43°
2026-05-04 00:53 -8.31820 -35.07936 34881 ft 466 kts 43°
2026-05-04 00:53 -8.29385 -35.05823 33882 ft 458 kts 36°
2026-05-04 00:53 -8.26710 -35.04160 32892 ft 451 kts 27°
2026-05-04 00:53 -8.23857 -35.02915 31899 ft 444 kts 20°
2026-05-04 00:54 -8.20914 -35.02057 30905 ft 438 kts 12°
2026-05-04 00:54 -8.17904 -35.01808 29913 ft 433 kts 359°
2026-05-04 00:54 -8.14936 -35.02097 28923 ft 428 kts 351°
2026-05-04 00:54 -8.12045 -35.02733 27929 ft 423 kts 346°
2026-05-04 00:55 -8.09250 -35.03580 26936 ft 419 kts 343°
2026-05-04 00:55 -8.06519 -35.04549 25940 ft 413 kts 342°
2026-05-04 00:55 -8.03848 -35.05567 24943 ft 409 kts 340°
2026-05-04 00:55 -8.01196 -35.06508 23947 ft 404 kts 348°
2026-05-04 00:56 -7.98446 -35.06615 22947 ft 393 kts 11°
2026-05-04 00:56 -7.95944 -35.05651 21951 ft 382 kts 35°
2026-05-04 00:56 -7.94102 -35.03815 20959 ft 371 kts 58°
2026-05-04 00:56 -7.93199 -35.01435 19966 ft 363 kts 82°
2026-05-04 00:57 -7.93374 -34.98941 18972 ft 357 kts 106°
2026-05-04 00:57 -7.94575 -34.96789 17978 ft 355 kts 131°
2026-05-04 00:57 -7.96568 -34.95370 16985 ft 355 kts 156°
2026-05-04 00:57 -7.98970 -34.94868 15997 ft 355 kts 175°
2026-05-04 00:58 -8.01430 -34.94889 15004 ft 353 kts 182°
2026-05-04 00:58 -8.03869 -34.95069 14006 ft 351 kts 184°
2026-05-04 00:58 -8.06284 -34.95149 13013 ft 348 kts 178°
2026-05-04 00:58 -8.08671 -34.94868 12015 ft 344 kts 167°
2026-05-04 00:59 -8.10915 -34.94087 11018 ft 341 kts 154°
2026-05-04 00:59 -8.12825 -34.92715 10016 ft 338 kts 134°
2026-05-04 00:59 -8.13977 -34.90697 9024 ft 335 kts 108°
2026-05-04 00:59 -8.14116 -34.88383 8032 ft 334 kts 82°
2026-05-04 01:00 -8.13208 -34.86248 7045 ft 334 kts 54°
2026-05-04 01:00 -8.11429 -34.84925 6964 ft 308 kts 23°
2026-05-04 01:00 -8.09417 -34.84681 6983 ft 284 kts 352°
2026-05-04 01:00 -8.07708 -34.85473 6989 ft 265 kts 318°
2026-05-04 01:01 -8.06782 -34.86987 6992 ft 252 kts 282°
2026-05-04 01:01 -8.06889 -34.88676 6996 ft 242 kts 246°
2026-05-04 01:01 -8.07947 -34.89927 6997 ft 235 kts 208°
2026-05-04 01:01 -8.09470 -34.90437 7007 ft 233 kts 190°
2026-05-04 01:02 -8.11058 -34.90744 6999 ft 233 kts 191°
2026-05-04 01:02 -8.12577 -34.91299 6991 ft 234 kts 210°
2026-05-04 01:02 -8.13614 -34.92544 6994 ft 238 kts 247°
2026-05-04 01:02 -8.13688 -34.94199 6997 ft 243 kts 284°
2026-05-04 01:03 -8.12755 -34.95591 6998 ft 246 kts 322°
2026-05-04 01:03 -8.11174 -34.96163 6999 ft 245 kts 359°
2026-05-04 01:03 -8.09579 -34.95682 6999 ft 242 kts 37°
2026-05-04 01:03 -8.08612 -34.94365 6999 ft 236 kts 74°
2026-05-04 01:04 -8.08645 -34.92754 7001 ft 231 kts 112°
2026-05-04 01:04 -8.09640 -34.91541 7003 ft 229 kts 148°
2026-05-04 01:04 -8.11138 -34.91038 7002 ft 230 kts 174°
2026-05-04 01:04 -8.12703 -34.91313 6994 ft 233 kts 206°
2026-05-04 01:05 -8.13800 -34.92487 6997 ft 238 kts 244°
2026-05-04 01:05 -8.13967 -34.94132 6998 ft 243 kts 281°
2026-05-04 01:05 -8.13112 -34.95575 6998 ft 246 kts 319°
2026-05-04 01:05 -8.11565 -34.96233 6998 ft 245 kts 356°
2026-05-04 01:06 -8.09942 -34.95841 6998 ft 242 kts 34°
2026-05-04 01:06 -8.08899 -34.94572 6999 ft 237 kts 71°
2026-05-04 01:06 -8.08840 -34.92970 6999 ft 232 kts 109°
2026-05-04 01:06 -8.09771 -34.91690 7001 ft 229 kts 145°
2026-05-04 01:07 -8.11240 -34.91126 7001 ft 230 kts 172°
2026-05-04 01:07 -8.12801 -34.91384 6995 ft 233 kts 206°
2026-05-04 01:07 -8.13898 -34.92562 6998 ft 238 kts 244°
2026-05-04 01:07 -8.14061 -34.94209 6998 ft 243 kts 281°
2026-05-04 01:08 -8.13200 -34.95651 6998 ft 246 kts 319°
2026-05-04 01:08 -8.11658 -34.96304 6998 ft 245 kts 356°
2026-05-04 01:08 -8.10037 -34.95912 6998 ft 242 kts 34°
2026-05-04 01:08 -8.08993 -34.94644 6999 ft 237 kts 71°
2026-05-04 01:09 -8.08936 -34.93033 6999 ft 232 kts 109°
2026-05-04 01:09 -8.09864 -34.91757 7002 ft 229 kts 145°
2026-05-04 01:09 -8.11332 -34.91177 7001 ft 230 kts 172°
2026-05-04 01:09 -8.12889 -34.91445 6996 ft 233 kts 207°
2026-05-04 01:10 -8.13971 -34.92634 6998 ft 238 kts 244°
2026-05-04 01:10 -8.14117 -34.94280 6998 ft 243 kts 282°
2026-05-04 01:10 -8.13244 -34.95714 6998 ft 246 kts 319°
2026-05-04 01:10 -8.11692 -34.96353 6999 ft 245 kts 357°
2026-05-04 01:11 -8.10074 -34.95944 6999 ft 242 kts 34°
2026-05-04 01:11 -8.09042 -34.94662 6999 ft 237 kts 72°
2026-05-04 01:11 -8.09003 -34.93055 6999 ft 232 kts 109°
2026-05-04 01:11 -8.09943 -34.91786 7003 ft 229 kts 145°
2026-05-04 01:12 -8.11410 -34.91206 7001 ft 230 kts 172°
2026-05-04 01:12 -8.12963 -34.91491 6996 ft 233 kts 207°
2026-05-04 01:12 -8.14031 -34.92697 6998 ft 238 kts 245°
2026-05-04 01:12 -8.14155 -34.94348 6999 ft 243 kts 283°
2026-05-04 01:13 -8.13262 -34.95769 6999 ft 246 kts 320°
2026-05-04 01:13 -8.11699 -34.96388 6998 ft 245 kts 358°
2026-05-04 01:13 -8.10087 -34.95955 6999 ft 242 kts 35°
2026-05-04 01:13 -8.09077 -34.94666 6999 ft 237 kts 72°
2026-05-04 01:14 -8.09057 -34.93057 6999 ft 232 kts 110°
2026-05-04 01:14 -8.10009 -34.91799 7003 ft 229 kts 145°
2026-05-04 01:14 -8.11481 -34.91223 7000 ft 230 kts 172°
2026-05-04 01:14 -8.13025 -34.91528 6997 ft 233 kts 208°
2026-05-04 01:15 -8.14079 -34.92756 6998 ft 238 kts 246°
2026-05-04 01:15 -8.14178 -34.94402 6998 ft 243 kts 283°
2026-05-04 01:15 -8.13264 -34.95814 6999 ft 246 kts 321°
2026-05-04 01:15 -8.11693 -34.96410 6998 ft 245 kts 358°
2026-05-04 01:16 -8.10087 -34.95956 6998 ft 242 kts 36°
2026-05-04 01:16 -8.09095 -34.94654 6999 ft 237 kts 73°
2026-05-04 01:16 -8.09097 -34.93046 6999 ft 232 kts 111°
2026-05-04 01:16 -8.10065 -34.91798 7004 ft 229 kts 145°
2026-05-04 01:17 -8.11545 -34.91232 7000 ft 230 kts 173°
2026-05-04 01:17 -8.13089 -34.91566 6996 ft 233 kts 210°
2026-05-04 01:17 -8.14117 -34.92810 6998 ft 238 kts 247°
2026-05-04 01:17 -8.14187 -34.94465 6998 ft 243 kts 284°
2026-05-04 01:18 -8.13250 -34.95857 6998 ft 246 kts 322°
2026-05-04 01:18 -8.11669 -34.96427 6998 ft 245 kts 359°
2026-05-04 01:18 -8.10074 -34.95947 6999 ft 242 kts 37°
2026-05-04 01:18 -8.09101 -34.94621 6999 ft 236 kts 75°
2026-05-04 01:19 -8.09134 -34.93016 6999 ft 231 kts 112°
2026-05-04 01:19 -8.10121 -34.91786 7008 ft 229 kts 146°
2026-05-04 01:19 -8.11605 -34.91238 7004 ft 230 kts 174°
2026-05-04 01:19 -8.13135 -34.91595 7003 ft 233 kts 210°
2026-05-04 01:20 -8.14148 -34.92859 7004 ft 238 kts 248°
2026-05-04 01:20 -8.14192 -34.94516 7005 ft 243 kts 285°
2026-05-04 01:20 -8.13232 -34.95895 7006 ft 246 kts 323°
2026-05-04 01:20 -8.11645 -34.96439 7004 ft 245 kts
2026-05-04 01:21 -8.10051 -34.95931 7003 ft 242 kts 38°
2026-05-04 01:21 -8.09105 -34.94599 7005 ft 236 kts 75°
2026-05-04 01:21 -8.09160 -34.92992 7004 ft 231 kts 112°
2026-05-04 01:21 -8.10164 -34.91774 7009 ft 229 kts 147°
2026-05-04 01:22 -8.11647 -34.91241 7001 ft 230 kts 174°
2026-05-04 01:22 -8.13183 -34.91620 6968 ft 235 kts 210°
2026-05-04 01:22 -8.14262 -34.92893 6571 ft 249 kts 245°
2026-05-04 01:22 -8.14455 -34.94353 6227 ft 254 kts 275°
2026-05-04 01:23 -8.13697 -34.96180 4905 ft 235 kts 296°
2026-05-04 01:23 -8.12575 -34.97593 2036 ft 277 kts 322°
2026-05-04 01:23 -8.10917 -34.97815 1126 ft 229 kts 26°
2026-05-04 01:23 -8.10075 -34.96952 720 ft 190 kts 71°
2026-05-04 01:24 -8.10252 -34.95665 444 ft 158 kts 119°
2026-05-04 01:24 -8.10666 -34.94651 355 ft 155 kts 100°
2026-05-04 01:24 -8.10632 -34.93518 155 ft 163 kts 80°
2026-05-04 01:24 -8.11054 -34.92763 148 ft 131 kts 166°
2026-05-04 01:25 -8.11872 -34.92558 38 ft 111 kts 160°
2026-05-04 01:25 -8.12532 -34.92352 37 ft 85 kts 161°
2026-05-04 01:25 -8.12914 -34.92180 37 ft 39 kts 156°
2026-05-04 01:25 -8.12964 -34.92051 37 ft 20 kts 59°
2026-05-04 01:26 -8.12943 -34.92029 37 ft 0 kts 37°